www.pogodaiklimat.ru

Погода и климат >> Архив погоды >> Россия >> Мурманская область >> Териберка


АРХИВ ПОГОДЫ в Териберке

Время (UTC), дата Ветер
(напр.,м/с)
 
Видим.   Явления Облачность Т
(С)
Тd
(С)
f
(%)
Тe
(С)
Тes
(С)
Комфортность P
(гПа)
Po
(гПа)
Тmin
(С)
Tmax
(С)
R
(мм)
R24
(мм)
S
(см)
18 15.08 С 3 500 м туман ?/? +8.5 +8.5 100 +6 +6 1005.3 1001.6 +8.8 0.0
00 16.08 С 5 500 м туман {ливн. осадки} ?/? +7.9 +8.0 100 +4 +4 1006.0 1002.3
06 16.08 С 5 20 км в посл. час ливневой дождь {туман} 10/10 300 м
[Cb cap]
+6.9 +6.9 100 +3 +3 1008.4 1004.7 +6.8 0.3
12 16.08 СЗ 3 20 км 9/9 600 м
[Cb cap]
+7.1 +5.1 87 +4 +5 1011.3 1007.6
18 16.08 Ю 3 20 км 9/9 600 м
[Cb cap]
+7.8 +6.0 88 +5 +5 1012.4 1008.7 +7.9
00 17.08 Ю 6 20 км 9/6 600 м
[Cb cap Ac trans]
+9.9 +8.1 89 +6 +6 1011.5 1007.8
06 17.08 Ю 7-9
{11}
20 км 8/0
[Ac lent Cs]
+15.1 +11.1 77 +13 +14 1010.5 1006.9 +7.8
12 17.08 ЮЗ 6-9
{14}
20 км 10/8 600 м
[Cb cap Ac und]
+18.2 +10.6 61 +18 +18 1010.5 1006.9
18 17.08 ЮВ 3-3
{11}
20 км слаб. ливневой дождь 10/10 480 м
[Cb cap]
+12.6 +12.2 97 +11 +11 1011.8 1008.2 +19.1 3
00 18.08 Ю 6-7
{11}
20 км {ливн. осадки} 10/10 600 м
[Cb cap]
+14.6 +11.7 83 +13 +13 1012.2 1008.6
06 18.08 Ю 7-10
{12}
20 км 9/4 600 м
[Cb cap Ac lent]
+17.3 +12.6 74 +16 +16 1011.8 1008.2 +12.7 0.3
12 18.08 ЮЗ 11-17
{17}
20 км 8/6 600 м
[Cu hum Ac trans]
+22.5 +9.8 44 +24 +24 комфорт 1011.5 1008.0
18 18.08 Ю 7-9
{13}
20 км 5/3 600 м
[Cu Sc Ac trans]
+19.2 +11.7 62 +20 +20 1013.3 1009.8 +22.7
00 19.08 Ю 8-11
{13}
20 км 6/3 600 м
[Sc Ac lent]
+14.2 +9.7 74 +12 +12 1014.2 1010.6
06 19.08 Ю 7-9
{10}
20 км 9/1 600 м
[Sc Ci sp]
+17.8 +10.2 61 +17 +18 1014.0 1010.4 +13.1
09 19.08 н/о +30.2 84
12 19.08 Ю 9-14
{17}
20 км 6/5 600 м
[Sc diur, vesp Ci sp]
+22.0 +7.4 39 +23 +23 комфорт 1011.3 1007.8
18 19.08 Ю 7-10
{12}
20 км 9/3 600 м
[Cb cap Ac As Cs]
+17.7 +9.9 60 +17 +17 1008.8 1005.2 +22.4
00 20.08 Ю 8-11
{15}
20 км в посл. час ливневой дождь 8/6 700 м
[Cb cap Ac As]
+15.6 +13.2 86 +14 +14 1006.8 1003.2
06 20.08 Ю 7-10
{13}
20 км 9/8 480 м
[Cb cap Ac As Cs]
+16.6 +13.7 83 +15 +15 1006.4 1002.8 +15.0 0.0
12 20.08 ЮЗ 7-9
{13}
20 км 5/4 600 м
[Cb cap Ac trans]
+20.6 +9.0 47 +22 +22 комфорт 1007.7 1004.2
18 20.08 ЮЗ 4 20 км 8/8 600 м
[Cb cap]
+18.2 +10.7 62 +18 +18 1010.1 1006.6 +21.1
00 21.08 ЮЗ 6 20 км 3/3 600 м
[Sc]
+13.6 +9.8 78 +11 +11 1012.3 1008.7
06 21.08 ЮЗ 4-7
{10}
20 км 3/3 600 м
[Sc]
+15.9 +11.0 73 +15 +17 1013.8 1010.2 +12.7
12 21.08 С 2 20 км 9/8 600 м
[Cb cap Ac trans]
+15.5 +11.0 75 +15 +16 1014.8 1011.2
18 21.08 ЮВ 1 20 км 8/5 600 м
[Cb cap Ac trans]
+14.8 +11.4 80 +15 +15 1014.6 1011.0 +17.3
00 22.08 Ю 3 20 км 3/1 600 м
[Sc Ac und]
+10.7 +9.3 91 +9 +9 1014.4 1010.7
06 22.08 Ю 1 20 км 4/3 600 м
[Sc diur, vesp Ac trans]
+15.0 +11.4 79 +16 +18 1013.6 1010.0 +10.0
12 22.08 СВ 1 20 км 6/3 600 м
[Cb cap Ac trans Ci ing]
+16.7 +11.7 72 +18 +21 1012.5 1008.9

 

Местоположение метеостанции Териберка (Мурманская область, Россия): широта 69.20 долгота 35.12 высота над уровнем моря 30 м.

В архиве по умолчанию представлена погода в Териберке за последнюю неделю. Архивные данные за месяц целиком и за предыдущие месяцы, начиная с января 2011 года, Вы можете получить, выбрав интересующий диапазон дат из раскрывающегося списка и нажав кнопку "Ввод!".


*Определитесь, кто Вы:
робот инопланетянин человек

Внимание! Время в таблицах - всемирное. Для получения местного времени необходимо прибавить поправку, которая равна 3 ч.

Смотрите также архив погоды в соседних городах и на ближайших метеорологических станциях:

Погода в Дальних Зеленцах (Мурманская область, Россия) (39 км)
Погода в Туманной (Мурманская область, Россия) (41 км)
Погода в Полярном (Мурманская область, Россия) (65 км)
Погода в Североморске (Мурманская область, Россия) (67 км)
Погода в Мурманске (Мурманская область, Россия) (86 км)
Погода в Ура-Губе (Мурманская область, Россия) (92 км)
Погода в Цып-Наволоке (Мурманская область, Россия) (98 км)
Погода в Мурманске аэропорт (Мурманская область, Россия) (114 км)
Погода в Пулозере (Мурманская область, Россия) (120 км)
Погода в Ловозере (Мурманская область, Россия) (134 км)

Пояснения к столбцам:

Ветер - указаны скорость ветра в м/с - средняя за 10 мин, порывы в срок и между сроками (в фигурных скобках) и направление, откуда дует ветер: С - северный, СВ - северо-восточный, В - восточный, ЮВ - юго-восточный, Ю - южный, ЮЗ - юго-западный, З - западный, СЗ - северо-западный.
Видимость - горизонтальная дальность видимости в метрах или километрах. При видимости от 1 до 10 км при отсутствии осадков обычно наблюдается дымка, при ухудшении видимости до 1 км и менее - туман. В сухую погоду видимость может ухудшаться дымом, пылью или мглою.
Явления - указаны атмосферные явления, наблюдавшиеся в срок или в последний час перед сроком; фигурными скобками обозначены явления, наблюдавшиеся между сроками (за 1-3 часа до срока); квадратными скобками обозначены град или гололедные отложения с указанием их диаметра в мм.
Облачность - указаны через наклонную черту общая и нижняя облачность в баллах и высота нижней границы облаков в метрах; квадратными скобками обозначены формы облаков: Ci - перистые, Cs - перисто-слоистые, Cc - перисто-кучевые, Ac - высококучевые, As - высокослоистые, Sc - слоисто-кучевые, Ns - слоисто-дождевые, Cu - кучевые, Cb - кучево-дождевые. Подробнее классификацию облаков см. в Атласе облаков (PDF).
T - Температура воздуха - температура, измеренная на высоте 2 м над землей.
Td - Температура точки росы - температура, при понижении до которой содержащийся в воздухе водяной пар достигнет насыщения.
f - Относительная влажность воздуха - влажноcть воздуха, измеренная на высоте 2 м над землей.
Te - Эффективная температура - температура, которую ощущает одетый по сезону человек в тени. Характеристика душности погоды. При расчете учитывается влияние влажности воздуха и скорости ветра на теплоощущения человека.
Tes - Эффективная температура на солнце - температура, которую ощущает человек, с поправкой на солнечный нагрев. Характеристика знойности погоды. Зависит от высоты солнца над горизонтом, облачности и скорости ветра. Ночью, в пасмурную погоду, а также при ветре 12 м/с и более поправка равна нулю.
P - Атмосферное давление - приведенное к уровню моря атмосферное давление.
Po - Атмосферное давление - измеренное на уровне метеостанции атмосферное давление.
Tmin - Минимальная температура - минимум температуры воздуха на высоте 2 м над землей.
Tmax - Максимальная температура - максимум температуры воздуха на высоте 2 м над землей.
R - Количество осадков - Количество выпавших осадков за период времени, мм. При наведении курсора мыши на число - период времени, за который выпало указанное количество осадков.
R24 - Количество осадков - Количество выпавших осадков за 24 часа, мм.
S - Снежный покров - Высота снежного покрова, см. При наведении курсора мыши на число - состояние снежного покрова и степень покрытия местности в баллах.